ワイズ彗星

245P/WISE (2002)

English version
Home page
Updated on September 4, 2010

---------------------------------------------------------------------

・ プロフィール

符号 245P/2002 Q16

・ 軌道要素

Epoch 2002 Jan. 6.0 TT = JDT 2452280.5
T 2002 Jan. 19.70542 TT                                 MPC
q   2.1489371            (2000.0)            P               Q
n   0.12233205     Peri.  316.31630     +0.11624727     +0.96437723
a   4.0189187      Node   318.60239     -0.78363301     -0.05794044
e   0.4652947      Incl.   21.05922     -0.61025066     +0.25810747
P   8.06

・ 光度変化

        m1 = 14.7 + 5 logΔ + 10.0 log r

---------------------------------------------------------------------

軌道要素はM.P.E.C. 2010-R23に掲載されたものです。
光度グラフはComet for Windowsで作成したものです。

---------------------------------------------------------------------

Copyright(C) Seiichi Yoshida (comet@aerith.net). All rights reserved.